Location: Newark
(43.4306°N, 0.3089°E)
Time: 05:24:36
(UTC+00:00)

A-11 Canister half - Pass Details

Date: 29 August 2019
Orbit: 1513 x 1686 km, 47.2° (Epoch: 22 September)

Event Time Altitude Azimuth Distance (km) Brightness Sun altitude
Rises 00:02:11 0° 292° (WNW) 4,810 11.8 -37.0°
Reaches altitude 10° 00:06:00 10° 280° (W) 3,849 11.1 -37.0°
Enters shadow 00:09:05 18° 264° (W) 3,248 10.6 -37.0°
